SHAONIAN XING (43199 NORAD) Tracking and Keplerian Element Data

This shows tracking and keplerian element data for the satellite.

Feedback or suggestion? Click here.




ElementValue
Catalog43199
NameSHAONIAN XING
Epoch Orbit30107
Epoch Day176.12014374
Epoch Year2023
RAAN336.6015
Inclination97.5425
Eccentricity0.0004634
Argument of Perigee185.1499
Mean Anonmoly174.9721
Mean Motion15.81209755
Decay Rate0.00305425
L11 43199U 18015H 23176.12014374 .00305425 00000+0 15120-2 0 9991
L22 43199 97.5425 336.6015 0004634 185.1499 174.9721 15.81209755301073



Live tracking and technical data element details for SHAONIAN XING (NORAD 43199). SHAONIAN XING can be tracked NOW for your location showing map with azimuth and elevation plus other details from your city location.







IsCatalogInMostPopularTable: catalog: 43199, numindb: 559
Update: records affected: 1



GetName: 43199 SHAONIAN XING

Hit Count: updated at: Thu, 15 May 2025 10:02:53 GMT